AAL598 CYYZ-KPHL

Flight info

Callsign AAL598
Flight time N/A
Altitude 29000
Route KEPTA3 BMPAH DCT MIP DCT ETX DCT SPUDS
Aircraft E175/M-SDE3GILORVW/S

Departure

Time 2026-05-05 00:58
Airport Toronto Pearson International Airport (CYYZ)

Arrival

Time N/A
Airport Philadelphia International Airport (KPHL)
Time Latitude Longitude Altitude Speed Heading
2026-05-05 00:35 43.68180 -79.62028 559 ft 0 kts 27°
2026-05-05 00:50 43.68175 -79.62032 564 ft 2 kts 27°
2026-05-05 00:50 43.68161 -79.62042 564 ft 2 kts 27°
2026-05-05 00:50 43.68147 -79.62052 563 ft 2 kts 27°
2026-05-05 00:50 43.68132 -79.62062 565 ft 2 kts 27°
2026-05-05 00:51 43.68134 -79.62061 565 ft 1 kts 32°
2026-05-05 00:51 43.68135 -79.62058 567 ft 1 kts 54°
2026-05-05 00:51 43.68133 -79.62038 565 ft 4 kts 117°
2026-05-05 00:52 43.68065 -79.62005 563 ft 10 kts 182°
2026-05-05 00:52 43.67969 -79.62043 562 ft 20 kts 215°
2026-05-05 00:52 43.67837 -79.62105 564 ft 23 kts 161°
2026-05-05 00:52 43.67700 -79.61955 564 ft 24 kts 138°
2026-05-05 00:53 43.67572 -79.61790 565 ft 20 kts 135°
2026-05-05 00:53 43.67464 -79.61653 564 ft 23 kts 137°
2026-05-05 00:53 43.67378 -79.61538 563 ft 16 kts 135°
2026-05-05 00:53 43.67292 -79.61419 561 ft 20 kts 136°
2026-05-05 00:54 43.67218 -79.61323 562 ft 14 kts 135°
2026-05-05 00:54 43.67152 -79.61196 559 ft 18 kts 88°
2026-05-05 00:54 43.67236 -79.61030 556 ft 25 kts 46°
2026-05-05 00:54 43.67361 -79.60848 558 ft 28 kts 47°
2026-05-05 00:55 43.67500 -79.60651 562 ft 29 kts 45°
2026-05-05 00:55 43.67644 -79.60439 562 ft 31 kts 48°
2026-05-05 00:55 43.67797 -79.60212 559 ft 33 kts 45°
2026-05-05 00:55 43.67955 -79.59985 559 ft 18 kts 47°
2026-05-05 00:56 43.67957 -79.59864 560 ft 4 kts 136°
2026-05-05 00:56 43.67953 -79.59859 559 ft 3 kts 136°
2026-05-05 00:56 43.67899 -79.59795 558 ft 14 kts 156°
2026-05-05 00:56 43.67841 -79.59820 557 ft 0 kts 229°
2026-05-05 00:57 43.67831 -79.59834 558 ft 4 kts 229°
2026-05-05 00:57 43.67826 -79.59843 561 ft 3 kts 229°
2026-05-05 00:57 43.67794 -79.59890 559 ft 26 kts 226°
2026-05-05 00:57 43.67453 -79.60376 566 ft 114 kts 226°
2026-05-05 00:58 43.66752 -79.61387 861 ft 160 kts 223°
2026-05-05 00:58 43.65969 -79.62542 1641 ft 173 kts 226°
2026-05-05 00:58 43.65115 -79.63814 2381 ft 186 kts 227°
2026-05-05 00:58 43.64198 -79.65177 3135 ft 204 kts 227°
2026-05-05 00:59 43.63528 -79.66153 3827 ft 207 kts 227°
2026-05-05 00:59 43.62476 -79.67497 5018 ft 209 kts 214°
2026-05-05 00:59 43.61057 -79.68215 5938 ft 240 kts 190°
2026-05-05 00:59 43.59316 -79.67743 7036 ft 277 kts 158°
2026-05-05 01:00 43.57613 -79.65950 6419 ft 333 kts 142°
2026-05-05 01:00 43.56225 -79.63102 6065 ft 344 kts 122°
2026-05-05 01:00 43.55274 -79.60323 7276 ft 294 kts 124°
2026-05-05 01:00 43.54267 -79.57958 7541 ft 283 kts 135°
2026-05-05 01:01 43.52864 -79.56274 8046 ft 257 kts 151°
2026-05-05 01:01 43.51641 -79.54292 8626 ft 301 kts 122°
2026-05-05 01:01 43.50824 -79.51410 9271 ft 343 kts 113°
2026-05-05 01:01 43.50068 -79.48093 9788 ft 383 kts 108°
2026-05-05 01:02 43.49447 -79.44612 10249 ft 356 kts 106°
2026-05-05 01:02 43.48944 -79.41463 10745 ft 319 kts 105°
2026-05-05 01:02 43.48486 -79.38481 11364 ft 320 kts 105°
2026-05-05 01:02 43.48015 -79.35459 12014 ft 325 kts 105°
2026-05-05 01:03 43.47532 -79.32399 12699 ft 329 kts 105°
2026-05-05 01:03 43.47037 -79.29298 13391 ft 334 kts 104°
2026-05-05 01:03 43.46529 -79.26154 14028 ft 339 kts 105°
2026-05-05 01:03 43.46006 -79.22966 14660 ft 344 kts 105°
2026-05-05 01:04 43.45466 -79.19728 15278 ft 350 kts 106°
2026-05-05 01:04 43.44055 -79.13193 16526 ft 361 kts 110°
2026-05-05 01:04 43.43340 -79.10083 17155 ft 366 kts 111°
2026-05-05 01:05 43.42561 -79.06732 17853 ft 370 kts 111°
2026-05-05 01:05 43.41767 -79.03345 18473 ft 374 kts 111°
2026-05-05 01:05 43.40954 -78.99917 19097 ft 379 kts 111°
2026-05-05 01:05 43.40135 -78.96495 19728 ft 384 kts 111°
2026-05-05 01:06 43.39282 -78.93000 20373 ft 388 kts 111°
2026-05-05 01:06 43.38399 -78.89473 21040 ft 391 kts 112°
2026-05-05 01:06 43.37474 -78.85939 21666 ft 394 kts 115°
2026-05-05 01:06 43.36376 -78.82479 22307 ft 396 kts 118°
2026-05-05 01:07 43.35189 -78.79021 22822 ft 403 kts 119°
2026-05-05 01:07 43.33955 -78.75527 23328 ft 409 kts 120°
2026-05-05 01:07 43.32693 -78.71994 23765 ft 415 kts 120°
2026-05-05 01:07 43.31404 -78.68409 24218 ft 421 kts 120°
2026-05-05 01:08 43.30093 -78.64785 24676 ft 427 kts 120°
2026-05-05 01:08 43.28757 -78.61106 25146 ft 433 kts 120°
2026-05-05 01:08 43.27404 -78.57388 25617 ft 438 kts 120°
2026-05-05 01:08 43.26034 -78.53628 26072 ft 442 kts 120°
2026-05-05 01:09 43.24652 -78.49837 26516 ft 446 kts 120°
2026-05-05 01:09 43.23259 -78.46023 26907 ft 451 kts 120°
2026-05-05 01:09 43.21835 -78.42135 27016 ft 462 kts 120°
2026-05-05 01:09 43.20393 -78.38204 27054 ft 460 kts 120°
2026-05-05 01:10 43.18962 -78.34295 27068 ft 458 kts 120°
2026-05-05 01:10 43.17520 -78.30472 27079 ft 457 kts 121°
2026-05-05 01:10 43.15986 -78.26699 27139 ft 448 kts 122°
2026-05-05 01:10 43.14422 -78.22930 27110 ft 462 kts 122°
2026-05-05 01:11 43.12798 -78.19042 27017 ft 476 kts 122°
2026-05-05 01:11 43.11132 -78.15074 26928 ft 484 kts 122°
2026-05-05 01:11 43.09479 -78.11137 26857 ft 484 kts 122°
2026-05-05 01:11 43.07785 -78.07091 26807 ft 483 kts 122°
2026-05-05 01:12 43.06114 -78.03102 26772 ft 483 kts 122°
2026-05-05 01:12 43.04444 -77.99117 26747 ft 483 kts 122°
2026-05-05 01:12 43.02778 -77.95134 26733 ft 483 kts 122°
2026-05-05 01:12 43.01109 -77.91158 26718 ft 483 kts 122°
2026-05-05 01:13 42.99438 -77.87177 26714 ft 482 kts 122°
2026-05-05 01:13 42.97733 -77.83232 26706 ft 480 kts 123°
2026-05-05 01:13 42.96000 -77.79337 26720 ft 480 kts 124°
2026-05-05 01:13 42.94228 -77.75398 26720 ft 481 kts 124°
2026-05-05 01:14 42.92492 -77.71555 26718 ft 481 kts 124°
2026-05-05 01:14 42.90735 -77.67671 26717 ft 481 kts 124°
2026-05-05 01:14 42.88980 -77.63793 26720 ft 481 kts 124°
2026-05-05 01:14 42.87225 -77.59914 26722 ft 481 kts 124°
2026-05-05 01:15 42.85465 -77.56032 26724 ft 482 kts 124°
2026-05-05 01:15 42.83702 -77.52158 26727 ft 481 kts 124°
2026-05-05 01:15 42.81937 -77.48282 26732 ft 481 kts 124°
2026-05-05 01:15 42.80173 -77.44407 26726 ft 481 kts 124°
2026-05-05 01:16 42.78410 -77.40534 26727 ft 481 kts 123°
2026-05-05 01:16 42.76643 -77.36659 26745 ft 482 kts 124°
2026-05-05 01:16 42.74904 -77.32838 26730 ft 482 kts 124°
2026-05-05 01:16 42.73139 -77.28962 26738 ft 482 kts 124°
2026-05-05 01:17 42.71377 -77.25087 26731 ft 479 kts 123°
2026-05-05 01:17 42.69618 -77.21235 26752 ft 481 kts 123°
2026-05-05 01:17 42.67846 -77.17373 26759 ft 481 kts 124°
2026-05-05 01:17 42.66074 -77.13517 26747 ft 481 kts 124°
2026-05-05 01:18 42.64303 -77.09664 26742 ft 481 kts 124°
2026-05-05 01:18 42.62536 -77.05815 26748 ft 481 kts 124°
2026-05-05 01:18 42.60765 -77.01960 26753 ft 481 kts 123°
2026-05-05 01:18 42.58996 -76.98112 26746 ft 480 kts 123°
2026-05-05 01:19 42.57231 -76.94270 26749 ft 481 kts 123°
2026-05-05 01:19 42.55461 -76.90418 26748 ft 480 kts 123°
2026-05-05 01:19 42.53691 -76.86566 26754 ft 481 kts 123°
2026-05-05 01:19 42.51919 -76.82719 26748 ft 482 kts 123°
2026-05-05 01:20 42.50144 -76.78872 26756 ft 481 kts 123°
2026-05-05 01:20 42.48369 -76.75028 26750 ft 480 kts 123°
2026-05-05 01:20 42.46569 -76.71207 26747 ft 481 kts 124°
2026-05-05 01:20 42.44719 -76.67437 26739 ft 481 kts 126°
2026-05-05 01:21 42.42783 -76.63759 26747 ft 479 kts 127°
2026-05-05 01:21 42.40809 -76.60120 26768 ft 480 kts 128°
2026-05-05 01:21 42.38823 -76.56496 26774 ft 480 kts 128°
2026-05-05 01:21 42.36859 -76.52923 26772 ft 480 kts 128°
2026-05-05 01:22 42.34864 -76.49298 26752 ft 482 kts 128°
2026-05-05 01:22 42.32841 -76.45703 26771 ft 479 kts 129°
2026-05-05 01:22 42.30787 -76.42169 26771 ft 478 kts 130°
2026-05-05 01:22 42.28715 -76.38650 26751 ft 478 kts 130°
2026-05-05 01:23 42.26635 -76.35131 26776 ft 478 kts 130°
2026-05-05 01:23 42.24559 -76.31625 26791 ft 479 kts 130°
2026-05-05 01:23 42.22481 -76.28119 26776 ft 479 kts 130°
2026-05-05 01:23 42.20405 -76.24617 26727 ft 475 kts 130°
2026-05-05 01:24 42.18262 -76.21274 26633 ft 468 kts 137°
2026-05-05 01:24 42.15803 -76.18439 26455 ft 464 kts 147°
2026-05-05 01:24 42.13090 -76.16143 26175 ft 459 kts 153°
2026-05-05 01:24 42.10265 -76.14073 25905 ft 462 kts 155°
2026-05-05 01:25 42.07418 -76.12044 25619 ft 462 kts 155°
2026-05-05 01:25 42.04583 -76.10021 25326 ft 460 kts 155°
2026-05-05 01:25 42.01797 -76.08033 25036 ft 458 kts 155°
2026-05-05 01:25 41.98993 -76.06026 24759 ft 456 kts 155°
2026-05-05 01:26 41.96194 -76.04017 24427 ft 455 kts 155°
2026-05-05 01:26 41.93408 -76.02016 24095 ft 453 kts 155°
2026-05-05 01:26 41.90635 -76.00020 23772 ft 451 kts 155°
2026-05-05 01:26 41.87880 -75.98035 23451 ft 449 kts 155°
2026-05-05 01:27 41.85134 -75.96053 23088 ft 447 kts 155°
2026-05-05 01:27 41.82409 -75.94082 22712 ft 443 kts 155°
2026-05-05 01:27 41.79706 -75.92120 22345 ft 441 kts 155°
2026-05-05 01:27 41.77020 -75.90167 21983 ft 438 kts 155°
2026-05-05 01:28 41.74355 -75.88222 21609 ft 435 kts 155°
2026-05-05 01:28 41.71713 -75.86297 21239 ft 430 kts 155°
2026-05-05 01:28 41.69092 -75.84389 20883 ft 427 kts 155°
2026-05-05 01:28 41.66487 -75.82491 20531 ft 425 kts 155°
2026-05-05 01:29 41.63893 -75.80597 20192 ft 423 kts 155°
2026-05-05 01:29 41.61232 -75.78643 19839 ft 420 kts 155°
2026-05-05 01:29 41.58756 -75.76860 19522 ft 417 kts 159°
2026-05-05 01:29 41.56028 -75.75747 19185 ft 407 kts 172°
2026-05-05 01:30 41.53263 -75.74994 18861 ft 404 kts 174°
2026-05-05 01:30 41.50510 -75.74330 18518 ft 401 kts 175°
2026-05-05 01:30 41.47766 -75.73735 18213 ft 398 kts 176°
2026-05-05 01:30 41.44919 -75.73142 17961 ft 395 kts 176°
2026-05-05 01:31 41.42322 -75.72612 17891 ft 395 kts 176°
2026-05-05 01:31 41.39597 -75.72062 17860 ft 396 kts 176°
2026-05-05 01:31 41.36875 -75.71537 17853 ft 395 kts 177°
2026-05-05 01:31 41.34178 -75.71078 17847 ft 395 kts 178°
2026-05-05 01:32 41.31445 -75.70636 17853 ft 395 kts 178°
2026-05-05 01:32 41.28715 -75.70206 17836 ft 397 kts 178°
2026-05-05 01:32 41.25977 -75.69787 17849 ft 395 kts 178°
2026-05-05 01:32 41.23243 -75.69374 17861 ft 395 kts 178°
2026-05-05 01:33 41.20509 -75.68989 17855 ft 395 kts 179°
2026-05-05 01:33 41.17777 -75.68626 17849 ft 395 kts 179°
2026-05-05 01:33 41.15040 -75.68271 17847 ft 395 kts 179°
2026-05-05 01:33 41.12341 -75.67929 17851 ft 394 kts 179°
2026-05-05 01:34 41.09609 -75.67582 17871 ft 393 kts 179°
2026-05-05 01:34 41.06926 -75.67239 17542 ft 382 kts 179°
2026-05-05 01:34 41.04297 -75.66899 17216 ft 375 kts 179°
2026-05-05 01:34 41.01754 -75.66561 16885 ft 360 kts 179°
2026-05-05 01:35 40.99306 -75.66244 16553 ft 348 kts 180°
2026-05-05 01:35 40.96915 -75.65978 16234 ft 344 kts 180°
2026-05-05 01:35 40.94522 -75.65745 15935 ft 345 kts 182°
2026-05-05 01:35 40.92124 -75.65577 15638 ft 344 kts 182°
2026-05-05 01:36 40.89739 -75.65436 15339 ft 342 kts 183°
2026-05-05 01:36 40.87368 -75.65303 15031 ft 340 kts 182°
2026-05-05 01:36 40.85011 -75.65178 14744 ft 339 kts 183°
2026-05-05 01:36 40.82661 -75.65055 14466 ft 337 kts 183°
2026-05-05 01:37 40.80320 -75.64935 14187 ft 335 kts 183°
2026-05-05 01:37 40.78032 -75.64384 13911 ft 339 kts 164°
2026-05-05 01:37 40.75898 -75.63047 13616 ft 340 kts 155°
2026-05-05 01:37 40.73765 -75.61289 13288 ft 341 kts 151°
2026-05-05 01:38 40.71927 -75.59640 13004 ft 341 kts 149°
2026-05-05 01:38 40.69988 -75.57849 12702 ft 339 kts 149°
2026-05-05 01:38 40.68079 -75.56035 12333 ft 338 kts 148°
2026-05-05 01:38 40.66191 -75.54215 11924 ft 335 kts 148°
2026-05-05 01:39 40.64329 -75.52411 11510 ft 332 kts 148°
2026-05-05 01:39 40.62471 -75.50609 11135 ft 330 kts 148°
2026-05-05 01:39 40.60653 -75.48844 10740 ft 325 kts 148°
2026-05-05 01:39 40.58848 -75.47090 10351 ft 321 kts 148°
2026-05-05 01:40 40.57062 -75.45351 10141 ft 317 kts 148°
2026-05-05 01:40 40.55281 -75.43619 10085 ft 320 kts 148°
2026-05-05 01:40 40.53486 -75.41881 10055 ft 320 kts 147°
2026-05-05 01:40 40.51673 -75.40163 10049 ft 321 kts 148°
2026-05-05 01:41 40.49863 -75.38458 10034 ft 320 kts 148°
2026-05-05 01:41 40.47950 -75.37046 10031 ft 313 kts 163°
2026-05-05 01:41 40.45890 -75.36121 10030 ft 313 kts 167°
2026-05-05 01:41 40.43803 -75.35304 10018 ft 313 kts 168°
2026-05-05 01:42 40.41714 -75.34522 10024 ft 312 kts 169°
2026-05-05 01:42 40.39623 -75.33759 10019 ft 312 kts 169°
2026-05-05 01:42 40.37523 -75.33004 9797 ft 314 kts 169°
2026-05-05 01:42 40.35429 -75.32254 9479 ft 310 kts 169°
2026-05-05 01:43 40.33363 -75.31513 9162 ft 306 kts 169°
2026-05-05 01:43 40.31310 -75.30799 8851 ft 304 kts 170°